(254163) = 2004 PY113

Discovered at Socorro on 2004-08-08 by LINEAR.

Orbit

Orbit type: Main Belt

Note: WebGL enabled browser required.

epoch2024-03-31.0
epoch JD2460400.5
perihelion date2021-09-10.76446
perihelion JD2459468.26446
argument of perihelion (°)256.69978
ascending node (°)93.77967
inclination (°)8.24432
eccentricity0.1713439
perihelion distance (AU)2.6155889
Tisserand w.r.t. Jupiter3.2
ΔV w.r.t. Earth (km/sec)10.4
semimajor axis (AU)3.1564226
mean anomaly (°)163.84635
mean daily motion (°/day)0.17575640
aphelion distance (AU)3.697
period (years)5.61
P-vector [x]0.97619100
P-vector [y]-0.09685186
P-vector [z]-0.19408977
Q-vector [x]0.16302906
Q-vector [y]0.91782323
Q-vector [z]0.36196968
absolute magnitude15.61
phase slope0.15
uncertainty0
referenceMPEC 2024-D82
observations used469
oppositions18
arc length (days)8889
first opposition used1999
last opposition used2024
residual rms (arc-secs)0.67
perturbers coarse indicatorM-v
perturbers precise indicator003Ek
first observation date used1999-10-19.0
last observation date used2024-02-19.0
computer nameMPCLINUX
JD of orbit computation2456819.616080
perihelion JD uncertainty (days)1.1030E-04
argument of perihelion uncertainty (°)4.6543E-05
ascending node uncertainty (°)4.3949E-05
inclination uncertainty (°)5.2911E-06
eccentricity uncertainty 5.5107E-08
perihelion distance uncertainty (AU)1.7572E-07
Minimum Orbit Intersection Distances (in AU)
for orbit epoch: 2460400.5, reference: E2024-G38
Mercury2.23321
Venus1.89169
Earth1.62502
Mars1.24844
Jupiter1.7833
Saturn5.63026
Uranus14.7794
Neptune26.755

Observations

479 total observations over interval: 1999 10 19.25870 – 2024 02 19.262066
These data are available for download (format description).

Date (UT) J2000 RA J2000 Dec Magn Location Ref
1999 10 19.25870 02 51 01.48 +04 59 46.1 19.0   704 – Lincoln Laboratory ETS, New Mexico MPS 182682
1999 10 19.27269 02 51 01.04 +04 59 42.2 19.1   704 – Lincoln Laboratory ETS, New Mexico MPS 182682
1999 10 19.28668 02 51 00.27 +04 59 40.6 19.1   704 – Lincoln Laboratory ETS, New Mexico MPS 182682
1999 10 19.30067 02 50 59.63 +04 59 38.0 19.2   704 – Lincoln Laboratory ETS, New Mexico MPS 182682
1999 10 19.31472 02 50 59.01 +04 59 35.9 19.2   704 – Lincoln Laboratory ETS, New Mexico MPS 182682
2002 03 12.291880 12 10 57.573 +10 58 29.15 20.91 V 645 – Apache Point-Sloan Digital Sky Survey MPS 182682
2002 03 12.295352 12 10 57.431 +10 58 30.28 21.56   645 – Apache Point-Sloan Digital Sky Survey MPS 182683
2003 04 05.42345 16 02 20.18 -12 56 17.7 21.8 V 691 – Steward Observatory, Kitt Peak-Spacewatch MPS 182683
2003 04 05.45078 16 02 19.79 -12 56 15.3 21.5 V 691 – Steward Observatory, Kitt Peak-Spacewatch MPS 182683
2003 04 05.47763 16 02 19.37 -12 56 12.6 21.4 V 691 – Steward Observatory, Kitt Peak-Spacewatch MPS 182683
2004 08 08.29712 22 14 54.54 -21 37 22.4 18.9   704 – Lincoln Laboratory ETS, New Mexico MPS 181052
2004 08 08.30662 22 14 54.07 -21 37 27.6 19.5   704 – Lincoln Laboratory ETS, New Mexico MPS 181052
2004 08 08.31605 22 14 53.72 -21 37 30.8 19.4   704 – Lincoln Laboratory ETS, New Mexico MPS 181052
2004 08 08.32553 22 14 53.32 -21 37 34.6 19.5   704 – Lincoln Laboratory ETS, New Mexico MPS 181052
2004 08 22.66428 22 04 33.46 -23 09 59.1 19.0 R E12 – Siding Spring Survey MPS 181052
2004 08 22.67549 22 04 32.96 -23 10 04.0 18.9 R E12 – Siding Spring Survey MPS 181052
2004 08 22.69409 22 04 32.03 -23 10 10.6 18.8 R E12 – Siding Spring Survey MPS 181052
2004 08 22.70532 22 04 31.55 -23 10 13.8 18.9 R E12 – Siding Spring Survey MPS 181052
2004 08 23.27615 22 04 06.00 -23 13 33.8 18.3 R 699 – Lowell Observatory-LONEOS MPS 181052
2004 08 23.29075 22 04 05.17 -23 13 39.0   699 – Lowell Observatory-LONEOS MPS 181052
2004 08 23.30532 22 04 04.52 -23 13 44.0   699 – Lowell Observatory-LONEOS MPS 181052
2004 08 23.31988 22 04 03.94 -23 13 48.3   699 – Lowell Observatory-LONEOS MPS 181052
2004 09 15.51854 21 48 49.51 -24 39 10.2 18.9 R E12 – Siding Spring Survey MPS 181052
2004 09 15.52709 21 48 49.25 -24 39 09.9 19.2 R E12 – Siding Spring Survey MPS 181052
2004 09 15.53560 21 48 48.92 -24 39 10.4 19.2 R E12 – Siding Spring Survey MPS 181052
2004 09 15.54417 21 48 48.63 -24 39 11.8 19.6 R E12 – Siding Spring Survey MPS 181052
2005 12 01.20686 05 16 42.57 +19 18 25.1 20.0 V 691 – Steward Observatory, Kitt Peak-Spacewatch MPS 182683
2005 12 01.22718 05 16 41.43 +19 18 27.0 20.0 V 691 – Steward Observatory, Kitt Peak-Spacewatch MPS 182683
2005 12 01.24452 05 16 40.48 +19 18 27.9 20.0 V 691 – Steward Observatory, Kitt Peak-Spacewatch MPS 182683
2006 01 22.16956 04 41 22.20 +20 39 32.9 20.1 V G96 – Mt. Lemmon Survey MPS 182683
2006 01 22.17718 04 41 22.12 +20 39 34.2 20.2 V G96 – Mt. Lemmon Survey MPS 182683
2006 01 22.18480 04 41 22.05 +20 39 35.2 20.1 V G96 – Mt. Lemmon Survey MPS 182683
2006 01 22.19250 04 41 21.94 +20 39 36.2 20.2 V G96 – Mt. Lemmon Survey MPS 182683
2006 02 20.10748 04 46 23.80 +21 51 45.2 20.6 V G96 – Mt. Lemmon Survey MPS 182683
2006 02 20.11289 04 46 23.98 +21 51 46.1 20.6 V G96 – Mt. Lemmon Survey MPS 182683
2006 02 20.11831 04 46 24.13 +21 51 46.9 20.3 V G96 – Mt. Lemmon Survey MPS 182683
2006 02 20.12372 04 46 24.27 +21 51 48.2 20.4 V G96 – Mt. Lemmon Survey MPS 182683
2006 03 05.13711 04 54 27.36 +22 27 50.4 20.8 V G96 – Mt. Lemmon Survey MPS 182683
2006 03 05.14152 04 54 27.54 +22 27 51.8 21.7 V G96 – Mt. Lemmon Survey MPS 182683
2006 03 05.14590 04 54 27.75 +22 27 52.4 21.3 V G96 – Mt. Lemmon Survey MPS 182683
2006 03 05.15036 04 54 27.90 +22 27 53.0 20.7 V G96 – Mt. Lemmon Survey MPS 182683
2008 03 10.42455 13 41 50.49 +00 51 53.7 19.8 V G96 – Mt. Lemmon Survey MPS 242101
2008 03 10.43530 13 41 50.10 +00 51 56.1 20.5 V G96 – Mt. Lemmon Survey MPS 242101
2008 03 10.44595 13 41 49.81 +00 51 58.8 20.8 V G96 – Mt. Lemmon Survey MPS 242101
2008 03 10.45672 13 41 49.56 +00 52 01.4 21.0 V G96 – Mt. Lemmon Survey MPS 242101
2008 04 12.30477 13 21 19.90 +03 17 43.1 20.7 V G96 – Mt. Lemmon Survey MPS 246739
2008 04 12.31037 13 21 19.65 +03 17 44.4 20.7 V G96 – Mt. Lemmon Survey MPS 246739
2008 04 12.31598 13 21 19.36 +03 17 45.5 20.7 V G96 – Mt. Lemmon Survey MPS 246739
2008 04 12.32160 13 21 19.11 +03 17 47.4 20.7 V G96 – Mt. Lemmon Survey MPS 246739
2010 07 08.487368 01 10 34.042 -02 03 19.04   C51 – WISE MPS 903800
2010 07 08.619672 01 10 42.082 -02 02 56.65   C51 – WISE MPS 903800
2010 07 08.751977 01 10 50.045 -02 02 35.16   C51 – WISE MPS 903800
2010 07 08.818065 01 10 54.055 -02 02 24.04   C51 – WISE MPS 903800
2010 07 08.884280 01 10 58.030 -02 02 12.66   C51 – WISE MPS 903800
2010 07 08.950369 01 11 01.997 -02 02 02.44   C51 – WISE MPS 903800
2010 07 09.082672 01 11 09.977 -02 01 40.84   C51 – WISE MPS 903800
2010 07 09.214977 01 11 17.894 -02 01 18.66   C51 – WISE MPS 903800
2010 07 09.347280 01 11 25.776 -02 00 56.77   C51 – WISE MPS 903800
2010 07 09.479583 01 11 33.703 -02 00 36.00   C51 – WISE MPS 903800
2010 07 09.611888 01 11 41.597 -02 00 14.69   C51 – WISE MPS 903800
2010 09 11.36259 01 35 52.70 -03 27 47.8 19.7   704 – Lincoln Laboratory ETS, New Mexico MPS 347943
2010 09 11.38656 01 35 52.20 -03 27 55.5 19.8   704 – Lincoln Laboratory ETS, New Mexico MPS 347943
2010 09 11.41054 01 35 51.66 -03 28 02.9 19.9   704 – Lincoln Laboratory ETS, New Mexico MPS 347943
2010 10 02.24321 01 24 02.56 -05 10 26.7 18.6 R 926 – Tenagra II Observatory, Nogales MPS 351166
2010 10 02.25177 01 24 02.18 -05 10 29.1 18.5 R 926 – Tenagra II Observatory, Nogales MPS 351166
2010 10 02.26223 01 24 01.72 -05 10 32.1 18.6 R 926 – Tenagra II Observatory, Nogales MPS 351166
2010 10 07.27965 01 20 16.44 -05 32 05.7 19.0 V 703 – Catalina Sky Survey MPS 349429
2010 10 07.28660 01 20 16.18 -05 32 07.5 18.9 V 703 – Catalina Sky Survey MPS 349429
2010 10 07.29352 01 20 15.86 -05 32 09.6 19.0 V 703 – Catalina Sky Survey MPS 349429
2010 10 07.30049 01 20 15.43 -05 32 11.5 18.7 V 703 – Catalina Sky Survey MPS 349429
2010 10 11.29634 01 17 10.45 -05 47 17.6 19.4   704 – Lincoln Laboratory ETS, New Mexico MPS 351166
2010 10 11.31011 01 17 09.72 -05 47 20.0 19.2   704 – Lincoln Laboratory ETS, New Mexico MPS 351166
2010 10 11.32391 01 17 09.10 -05 47 23.7 19.0   704 – Lincoln Laboratory ETS, New Mexico MPS 351166
2010 10 11.33769 01 17 08.51 -05 47 25.0 18.9   704 – Lincoln Laboratory ETS, New Mexico MPS 351166
2010 10 11.35146 01 17 07.81 -05 47 27.6 19.5   704 – Lincoln Laboratory ETS, New Mexico MPS 351166
2010 10 12.31810 01 16 22.87 -05 50 47.7 19.6 V 703 – Catalina Sky Survey MPS 351166
2010 10 12.32441 01 16 22.58 -05 50 48.8 19.4 V 703 – Catalina Sky Survey MPS 351166
2010 10 12.33079 01 16 22.22 -05 50 49.7 19.2 V 703 – Catalina Sky Survey MPS 351166
2010 10 12.33721 01 16 21.86 -05 50 51.3 18.7 V 703 – Catalina Sky Survey MPS 351166
2010 10 29.384397 01 03 59.126 -06 23 58.18 19.44 r F51 – Pan-STARRS 1, Haleakala MPS 366848
2010 10 29.395459 01 03 58.681 -06 23 58.47 19.53 r F51 – Pan-STARRS 1, Haleakala MPS 366848
2010 11 02.24230 01 01 39.47 -06 23 59.5 20.8 R G92 – Jarnac Observatory, Vail MPS 353745
2010 11 02.25786 01 01 39.01 -06 23 59.6 20.4 R G92 – Jarnac Observatory, Vail MPS 353746
2010 11 02.27341 01 01 38.38 -06 23 59.8 20.3 R G92 – Jarnac Observatory, Vail MPS 353746
2010 11 22.400688 00 54 25.953 -05 37 48.41 19.87 i F51 – Pan-STARRS 1, Haleakala MPS 366848
2010 11 22.411994 00 54 25.851 -05 37 45.54 19.86 i F51 – Pan-STARRS 1, Haleakala MPS 366848
2011 01 29.26244 01 32 36.369 +03 00 43.92 21.7 w F51 – Pan-STARRS 1, Haleakala MPS 382059
2011 01 29.26707 01 32 36.670 +03 00 46.58 21.8 w F51 – Pan-STARRS 1, Haleakala MPS 382059
2011 01 29.27230 01 32 37.010 +03 00 49.56 21.6 w F51 – Pan-STARRS 1, Haleakala MPS 382059
2011 01 29.27692 01 32 37.292 +03 00 52.06 22.0 w F51 – Pan-STARRS 1, Haleakala MPS 382059
2011 10 22.42626 07 40 28.74 +21 37 48.6 21.3 V G96 – Mt. Lemmon Survey MPS 398011
2011 10 22.43448 07 40 28.99 +21 37 48.5 20.8 V G96 – Mt. Lemmon Survey MPS 398011
